Regional Weather Roundup
Issued by NWS Newport/Morehead, NC

Current Version | Previous Version | Graphics & Text | Print | Product List | Glossary On
Versions: 1 2 3 4 5 6 7 8 9 10 11 12 13 14 15 16 17 18 19 20 21 22 23 24 25 26 27 28 29 30 31 32 33 34 35 36 37 38 39 40 41 42 43 44 45 46 47 48 49 50
000 ASUS42 KMHX 232022 RWRMHX WEATHER ROUNDUP FOR EASTERN NORTH CAROLINA NATIONAL WEATHER SERVICE NEWPORT/MOREHEAD CITY NC 400 PM EDT THU OCT 23 2014 NOTE: "FAIR" INDICATES FEW OR NO CLOUDS BELOW 12,000 FEET WITH NO SIGNIFICANT WEATHER AND/OR OBSTRUCTIONS TO VISIBILITY NCZ015>017-031-032-045>047-102-103-232100- NORTH COAST CITY SKY/WX TMP DP RH WIND PRES REMARKS EDENTON SUNNY 67 48 50 NW9G18 29.87S ELIZABETH CITY MOSUNNY 67 47 48 W17 29.85S KITTY HAWK PTCLDY 64 49 57 W10G18 29.83S MANTEO MOSUNNY 64 48 57 W10G22 29.85S $$ NCZ045>047-081-094-103-104-232100- CENTRAL COAST CITY SKY/WX TMP DP RH WIND PRES REMARKS FRISCO SUNNY 63 52 67 W10G20 29.86S SWANQUARTER N/A 66 N/A N/A W17 29.82S $$ NCZ095-097-098-100-101-232100- SOUTHERN COAST CITY SKY/WX TMP DP RH WIND PRES REMARKS BEAUFORT SUNNY 68 47 46 W15 29.89S CEDAR ISLAND N/A 66 N/A N/A W12G17 29.91S JACKSONVILLE SUNNY 69 44 40 NW15 29.90S PINEY ISLAND CLEAR 70 46 42 W15G21 29.87F WILMINGTON SUNNY 69 43 38 W14 29.91F $$ NCZ011>013-027>030-043-044-078>080-089-090>093-098-232100- COASTAL PLAIN CITY SKY/WX TMP DP RH WIND PRES REMARKS AHOSKIE SUNNY 66 47 50 W5 29.88S CLINTON SUNNY 69 47 46 NW7 29.93S ELIZABETHTOWN SUNNY 70 41 35 W9 29.93S GOLDSBORO SUNNY 69 49 48 W8 29.89F GREENVILLE SUNNY 68 46 45 NW7 29.92S HAVELOCK SUNNY 69 45 41 W16G22 29.90S KENANSVILLE SUNNY 68 44 41 W9 29.92S KINSTON SUNNY 68 46 45 NW9 29.90F NEW BERN SUNNY 70 46 42 NW8 29.90S RICHLANDS SUNNY 68 45 42 W5 29.91S ROCKY MOUNT SUNNY 69 45 41 W14G21 29.90F WASHINGTON SUNNY 66 46 48 NW10G18 29.89S WHITEVILLE SUNNY 68 42 37 W7 29.93F $$ AMZ130-135-150-152-154-156-158-170-250-252-270-ANZ085-086-088-633-658-670-232100- MARINE OBSERVATIONS STATION/POSITION TIME TEMP WIND PRES WAVE SWELL AIR SEA DIR/SP/G HT/PER HT/PER (UTC) (F) (DEG/KT/KT) (MB) (FT/S) (FT/S) CHESAPEAKE LIGHT 2000 62 310/ 21/ 22 1010.8 64 E VA BEACH 2000 61 67 310/ 23/ 29 1008.3 10/ 7 2/16 DUCK 2000 64 66 300/ 13/ 15 1009.4 2 E DUCK 1900 N/A 5/ 8 10 NE DUCK 1900 69 N/A 6/ 8 OREGON INLET 2000 63 63 300/ 12/ 17 1010.4 13E OREGON INLT 2000 70 N/A 7/ 8 2/11 HATTERAS CG 2000 64 63 280/ 17/ 22 1011.3 DIAMOND BUOY 2000 64 290/ 17/ 21 1011.1 5/ 6 2/10 17 S OCRACOKE NOT AVBL CAPE LOOKOUT 2000 66 280/ 12/ 14 1011.9 BEAUFORT LAB 2000 67 66 300/ 9/ 13 1011.4 30 SE NEW RIVER 2000 66 75 270/ 16/ 21 1012.2 2/ 3 5 SE WRIGHTSVLE 2000 65 72 280/ 14/ 16 N/A 225 S CAPE HAT 1854 71 78 300/ 14/ 17 1013.6 8/ 8 7/ 8 41 SE CHARLESTON 2000 63 78 310/ 10/ 12 1015.2 2/ 5 2/ 5 $$

USA.gov is the U.S. government's official web portal to all federal, state and local government web resources and services.